Location: Spring Creek
(38.2870°N, 100.2160°W)
Time: 23:35:35
(UTC+00:00)

Cosmos 1624 Rocket - Pass Details

Date: 08 May 2021
Orbit: 757 x 784 km, 74.0° (Epoch: 21 June)

Event Time Altitude Azimuth Distance (km) Brightness Sun altitude
Exits shadow 10:24:39 16° 210° (SSW) 1,960 5.6 -13.1°
Maximum altitude 10:28:56 65° 290° (WNW) 858 4.1 -12.4°
Drops below altitude 10° 10:34:14 10° 12° (NNE) 2,345 7.2 -11.6°
Sets 10:36:39 0° 16° (NNE) 3,279 8.1 -11.2°
